Fayetteville, Georgia, United States (30214)
Lat: 33.45N, Lon: 84.45W
Wx Zone: GAZ054
Local Info
Past Weather Observations for Today

NOTE: This archive is for the closest National Weather Service station to Fayetteville. Information may differ from the station used for current weather conditions.

Click here for Long-term Archive

Time Weather Temperature Dewpoint Humidity Pressure Winds Precip Visibility
17:02
Overcast
Light Rain
46°F / 8°C 45°F / 7°C 93% 29.89 in
(1012 mb)
E 8.1 mph
(E 13 kph)
0.01 in
(0.25 mm)
5SM
16:53
Overcast
Rain
46°F / 8°C 45°F / 7°C 93% 29.89 in
(1012 mb)
Variable 4.6 mph
(Variable 7 kph)
0.05 in
(1.27 mm)
2 1/2SM
16:13
Overcast
Light Rain
46°F / 8°C 45°F / 7°C 93% 29.92 in
(1013 mb)
ESE 6.9 mph
(ESE 11 kph)
0.02 in
(0.51 mm)
5SM
16:05
Overcast
Light Rain
46°F / 8°C 45°F / 7°C 93% 29.92 in
(1013 mb)
E 6.9 mph
(E 11 kph)
0.02 in
(0.51 mm)
2 1/2SM
15:51
Overcast
Rain
46°F / 8°C 45°F / 7°C 93% 29.95 in
(1014 mb)
E 8.1 mph
(E 13 kph)
0.04 in
(1.02 mm)
1 3/4SM
15:50
Overcast
Rain
46°F / 8°C 45°F / 7°C 93% 29.95 in
(1014 mb)
E 8.1 mph
(E 13 kph)
0.03 in
(0.76 mm)
1 3/4SM
15:00
Overcast
Fog And Mist
46°F / 8°C 45°F / 7°C 93% 29.92 in
(1013 mb)
E 9.2 mph
(E 15 kph)
- 3SM
14:53
Overcast
Fog And Mist
46°F / 8°C 45°F / 7°C 93% 29.92 in
(1013 mb)
E 6.9 mph
(E 11 kph)
- 2 1/2SM
14:50
Overcast
Fog And Mist
46°F / 8°C 45°F / 7°C 93% 29.92 in
(1013 mb)
Variable 6.9 mph
(Variable 11 kph)
- 2 1/2SM
13:53
Overcast
Fog And Mist
46°F / 8°C 45°F / 7°C 93% 29.95 in
(1014 mb)
E 5.8 mph
(E 9 kph)
- 6SM
13:29
Overcast
Fog And Mist
46°F / 8°C 45°F / 7°C 93% 29.95 in
(1014 mb)
E 6.9 mph
(E 11 kph)
- 5SM
13:22
Overcast
Fog And Mist
46°F / 8°C 45°F / 7°C 93% 29.95 in
(1014 mb)
ESE 6.9 mph
(ESE 11 kph)
- 4SM
13:14
Overcast
Fog And Mist
46°F / 8°C 45°F / 7°C 93% 29.95 in
(1014 mb)
E 9.2 mph
(E 15 kph)
- 2 1/2SM
12:53
Overcast
Fog And Mist
46°F / 8°C 46°F / 8°C 100% 29.95 in
(1014 mb)
E 6.9 mph
(E 11 kph)
- 1 1/4SM
12:20
Overcast
Fog And Mist
46°F / 8°C 45°F / 7°C 93% 29.98 in
(1015 mb)
E 8.1 mph
(E 13 kph)
- 1 1/4SM
12:00
Overcast
Fog And Mist
46°F / 8°C 45°F / 7°C 93% 30.01 in
(1016 mb)
ESE 10.4 mph
(ESE 17 kph)
- 2 1/2SM
11:53
Overcast
Fog And Mist
46°F / 8°C 45°F / 7°C 93% 30.01 in
(1016 mb)
ESE 9.2 mph
(ESE 15 kph)
- 3SM
11:35
Overcast
Fog And Mist
46°F / 8°C 45°F / 7°C 93% 30.01 in
(1016 mb)
SE 8.1 mph
(SE 13 kph)
- 3SM
11:28
Overcast
Fog And Mist
46°F / 8°C 45°F / 7°C 93% 30.01 in
(1016 mb)
ESE 6.9 mph
(ESE 11 kph)
- 2 1/2SM
10:53
Overcast
Fog And Mist
46°F / 8°C 45°F / 7°C 93% 30.04 in
(1017 mb)
E 6.9 mph
(E 11 kph)
- 1SM
10:36
Overcast
Fog And Mist
46°F / 8°C 45°F / 7°C 93% 30.04 in
(1017 mb)
E 4.6 mph
(E 7 kph)
- 3/4SM
10:25
Overcast
Fog And Mist
46°F / 8°C 45°F / 7°C 93% 30.04 in
(1017 mb)
E 6.9 mph
(E 11 kph)
- 1SM
09:53
Overcast
Fog And Mist
46°F / 8°C 45°F / 7°C 93% 30.04 in
(1017 mb)
E 6.9 mph
(E 11 kph)
- 3/4SM
09:51
Overcast
Fog And Mist
46°F / 8°C 45°F / 7°C 93% 30.04 in
(1017 mb)
E 6.9 mph
(E 11 kph)
- 3/4SM
08:53
Overcast
Fog And Mist
46°F / 8°C 45°F / 7°C 93% 30.04 in
(1017 mb)
E 5.8 mph
(E 9 kph)
- 1 1/4SM
08:36
Overcast
Fog And Mist
46°F / 8°C 45°F / 7°C 93% 30.04 in
(1017 mb)
E 5.8 mph
(E 9 kph)
- 1 1/2SM
08:17
Overcast
Fog And Mist
46°F / 8°C 45°F / 7°C 93% 30.04 in
(1017 mb)
E 6.9 mph
(E 11 kph)
- 2 1/2SM
07:53
Overcast
Fog And Mist
46°F / 8°C 45°F / 7°C 93% 30.04 in
(1017 mb)
E 8.1 mph
(E 13 kph)
- 4SM
06:53
Overcast
Fog And Mist
46°F / 8°C 45°F / 7°C 93% 30.04 in
(1017 mb)
E 5.8 mph
(E 9 kph)
- 4SM
06:43
Overcast
Fog And Mist
46°F / 8°C 45°F / 7°C 93% 30.04 in
(1017 mb)
E 5.8 mph
(E 9 kph)
- 2 1/2SM
06:32
Overcast
Fog And Mist
46°F / 8°C 45°F / 7°C 93% 30.04 in
(1017 mb)
E 6.9 mph
(E 11 kph)
- 3SM
06:22
Overcast
Fog And Mist
46°F / 8°C 45°F / 7°C 93% 30.04 in
(1017 mb)
E 5.8 mph
(E 9 kph)
- 2 1/2SM
05:53
Overcast
Fog And Mist
46°F / 8°C 45°F / 7°C 93% 30.04 in
(1017 mb)
E 9.2 mph
(E 15 kph)
- 6SM
05:41
Overcast
Fog And Mist
46°F / 8°C 45°F / 7°C 93% 30.04 in
(1017 mb)
E 8.1 mph
(E 13 kph)
- 6SM
05:15
Overcast
Fog And Mist
46°F / 8°C 45°F / 7°C 93% 30.04 in
(1017 mb)
E 3.5 mph
(E 6 kph)
- 3SM
04:53
Overcast
Fog And Mist
46°F / 8°C 45°F / 7°C 93% 30.04 in
(1017 mb)
ESE 6.9 mph
(ESE 11 kph)
- 4SM
04:37
Overcast
Fog And Mist
46°F / 8°C 45°F / 7°C 93% 30.04 in
(1017 mb)
E 8.1 mph
(E 13 kph)
- 3SM
04:17
Overcast
Fog And Mist
46°F / 8°C 46°F / 8°C 100% 30.04 in
(1017 mb)
ESE 6.9 mph
(ESE 11 kph)
- 3SM
04:02
Overcast
Fog And Mist
46°F / 8°C 45°F / 7°C 93% 30.04 in
(1017 mb)
E 6.9 mph
(E 11 kph)
- 2SM
03:53
Overcast
Fog And Mist
46°F / 8°C 46°F / 8°C 100% 30.04 in
(1017 mb)
E 6.9 mph
(E 11 kph)
- 2SM
02:53
Overcast
Fog And Mist
46°F / 8°C 46°F / 8°C 100% 30.06 in
(1018 mb)
E 5.8 mph
(E 9 kph)
- 2SM
02:35
Overcast
Fog And Mist
46°F / 8°C 46°F / 8°C 100% 30.06 in
(1018 mb)
E 6.9 mph
(E 11 kph)
- 2 1/2SM
02:15
Overcast
Fog And Mist
46°F / 8°C 45°F / 7°C 93% 30.06 in
(1018 mb)
E 8.1 mph
(E 13 kph)
- 3SM
01:53
Overcast
Fog And Mist
46°F / 8°C 46°F / 8°C 100% 30.06 in
(1018 mb)
E 8.1 mph
(E 13 kph)
- 2SM
00:53
Overcast
Fog And Mist
48°F / 9°C 46°F / 8°C 94% 30.06 in
(1018 mb)
E 5.8 mph
(E 9 kph)
- 2SM
00:39
Overcast
Fog And Mist
48°F / 9°C 46°F / 8°C 94% 30.06 in
(1018 mb)
E 8.1 mph
(E 13 kph)
- 1 3/4SM
00:25
Overcast
Fog And Mist
48°F / 9°C 46°F / 8°C 94% 30.09 in
(1019 mb)
E 6.9 mph
(E 11 kph)
- 2 1/2SM
Time Weather Temperature Dewpoint Humidity Pressure Winds Precip Visibility


Weather for websites

WeatherForYou.com, LLC is not responsible for any damages or problems caused by this service. Current weather conditions are obtained from the closest station including government and personal stations which may have varying degrees of accuracy. Weather forecasts are derived from the NOAA NDFD. Like all things, this site belongs to Jesus Christ... He just trusts me to maintain it. If you have any questions or comments email webmaster@weatherforyou.com

Copyright © 2014, WeatherForYou.com LLC. All rights reserved.